Regional Weather Roundup
Issued by NWS

Home | Current Version | Previous Version | Text Only | Print | Product List | Glossary Off
Versions: 1 2 3 4 5 6 7 8 9 10 11 12 13 14 15 16 17 18 19 20 21 22 23 24 25 26 27 28 29 30 31 32 33 34 35 36 37 38 39 40 41 42 43 44 45 46 47 48 49 50

000
ASUS43 KLMK 220810
RWRKY
KENTUCKY REGIONAL WEATHER ROUNDUP
NATIONAL WEATHER SERVICE LOUISVILLE KY
300 AM EST SAT NOV 22 2014

NOTE "FAIR" INDICATES FEW OR NO CLOUDS BELOW 12,000 FEET
WITH NO SIGNIFICANT WEATHER AND/OR OBSTRUCTIONS TO VISIBILITY.

KYZ001>023-026-027-061>063-070>075-220900-
WESTERN AND SOUTH CENTRAL KENTUCKY

CITY           SKY/WX    TMP DP  RH WIND       PRES   REMARKS
PADUCAH        CLOUDY    49  34  56 S5        30.27S
HENDERSON      CLOUDY    41  27  56 SE3       30.28S
OWENSBORO      CLOUDY    43  30  60 MISG      30.30S
HOPKINSVILLE   MOCLDY    49  31  50 SE8       30.31S
BOWLING GREEN  CLOUDY    42  28  57 CALM      30.34F
GLASGOW        CLOUDY    44  26  48 CALM      30.34S
$$

KYZ024-025-028>034-038-045-046-053-220900-
NORTH CENTRAL KENTUCKY

CITY           SKY/WX    TMP DP  RH WIND       PRES   REMARKS
LOUISVILLE/SDF LGT RAIN  39  19  44 SE6       30.33S WCI  35
LOUISVILLE/LOU CLOUDY    39  18  42 CALM      30.33F
FORT KNOX      CLOUDY    42  23  47 S8        30.30F
$$

KYZ035>037-039>044-047>052-055>060-089>105-220900-
NORTHEAST KENTUCKY

CITY           SKY/WX    TMP DP  RH WIND       PRES   REMARKS
LEXINGTON      CLOUDY    37  16  42 S10       30.34S WCI  30
COVINGTON      CLOUDY    35  16  45 S7        30.32F WCI  29
FRANKFORT      CLOUDY    34  17  50 SE3       30.33F
$$

KYZ054-064>069-076>088-106>120-220900-
SOUTHEAST KENTUCKY

CITY           SKY/WX    TMP DP  RH WIND       PRES   REMARKS
JACKSON        CLEAR     31  11  43 S5        30.36F WCI  26
LONDON         PTCLDY    28  18  66 CALM      30.38S
SOMERSET       PTCLDY    32  21  64 S3        30.40S
MIDDLESBORO    CLEAR     24  21  88 CALM      30.43S
MONTICELLO     MOSUNNY   39  21  48 CALM      30.39F
$$




USA.gov is the U.S. government's official web portal to all federal, state and local government web resources and services.